Cloud_Cover
0 2 5 1 0 0 0 0 0 0 0 0 2 4 1 4 4 4 5 21 51 50 5 67 8 1 11 1 0 2 6 1 8
4 0 0 0 0 0 0 0 0 0 0 0 0 0 0 0 3 1 7 8 31 99 100 96 86 10 49 1 0 0 0 0 0
5 0 0 0 0 0 0 0 0 0 0 0 0 0 0 0 0 0 0 6 32 52 100 33 94 59 46 5 3 4 15 5 0
5 1 0 0 0 0 0 0 0 0 0 5 0 0 0 0 0 3 1 0 0 0 48 100 37 20 60 3 2 3 2 0 2
0 0 0 0 0 0 0 0 0 0 0 0 0 0 0 0 0 0 1 2 0 0 9 3 47 88 100 15 0 0 0 2 5
0 0 0 0 0 0 0 0 0 0 0 0 0 0 0 0 0 5 0 4 10 14 23 46 31 39 100 90 8 10 5 8 3
0 0 0 0 0 0 0 0 0 0 0 3 4 5 5 48 9 5 5 8 21 17 98 3 7 12 76 100 35 0 5 5 19
0 0 0 0 0 0 0 0 0 0 0 0 5 11 37 86 50 93 77 61 61 90 94 100 99 92 85 84 67 78 7 1 3
0 0 0 0 0 0 0 0 0 0 0 1 16 24 83 79 100 65 34 30 10 38 100 100 100 98 92 100 98 83 64 32 70
0 0 0 0 0 0 0 0 0 0 6 10 52 93 99 90 38 54 71 100 100 100 100 100 100 100 100 98 100 100 100 68 80
0 0 0 0 0 0 0 0 1 19 58 23 42 64 73 62 66 67 90 100 100 100 87 100 100 100 100 100 100 100 100 98 100
0 0 0 0 0 0 0 10 27 47 90 57 61 70 54 30 29 17 28 28 12 90 96 67 100 100 100 100 100 100 96 100 70
0 0 0 0 0 0 3 100 100 77 82 98 100 84 99 89 54 54 50 27 28 45 37 51 55 100 100 98 100 100 95 70 100
0 0 0 0 0 2 100 100 98 85 58 95 96 100 100 92 54 86 97 68 7 26 84 65 50 80 100 100 100 100 100 100 100
0 0 0 0 0 73 7 12 13 26 56 85 85 100 93 97 76 88 11 8 47 87 39 72 85 76 100 100 100 100 100 100 100
0 0 0 0 0 0 1 8 17 25 78 98 100 99 28 100 57 6 26 30 12 75 100 98 99 100 100 100 100 100 100 100 100
0 0 0 0 0 5 8 10 18 96 95 97 31 79 22 26 0 3 2 5 91 73 72 33 72 71 100 98 96 100 100 100 100
0 0 0 2 3 2 11 67 74 98 78 100 56 47 18 12 1 0 0 1 1 0 11 88 100 99 27 95 100 100 100 100 100
0 1 2 0 6 10 100 89 25 50 6 64 82 21 0 3 7 15 38 30 0 43 34 1 18 95 99 75 100 100 100 100 100
0 0 0 9 23 27 16 5 13 21 22 17 12 32 14 75 51 100 7 96 92 70 77 44 86 56 24 98 100 99 100 100 100